[[{"header":{"parameterUnit":"m.s-1","parameterCategory":1,"la1":30.2991,"la2":30.254,"lo1":-89.0895,"lo2":-89.0444,"dy":0.0017,"dx":0.0017,"nx":28,"ny":28,"refTime":"2024-04-01T21:00:00:Z","depth":0,"parameterNumber":2,"parameterNumberName":"U-component_of_WINDS"},"data":[0,0,0,0,0,0,0,0,0,0,0,0,0,0,0,0,0,0,0,0,0,0,0,0,0,0,0,0,0,0,0,0,0,0,0,0,0,0,0,0,0,0,0,0,0,0,0,0,0,0,0,0,0,0,0,0,0,0,-4.5601,-4.5602,0,-4.5712,-4.5713,-4.5714,-4.5693,-4.5691,-4.5689,-4.5687,-4.58,-4.5804,-4.5809,0,0,0,0,0,0,0,0,0,0,0,0,0,-4.5371,-4.5376,-4.5601,-4.5602,-4.5604,-4.5711,-4.5713,-4.5714,-4.5693,-4.5691,-4.5688,-4.5686,-4.5798,-4.5804,-4.5809,0,0,0,0,0,0,0,0,0,0,0,0,0,-4.5475,-4.5377,-4.5601,-4.5606,-4.5608,-4.5711,-4.5713,-4.5715,-4.5693,-4.569,-4.5687,-4.5685,-4.5796,-4.5803,-4.581,-4.5915,0,0,-4.5833,-4.5836,0,0,0,0,0,0,0,0,-4.547,-4.5484,-4.5604,-4.5606,-4.5608,-4.5685,-4.5673,-4.5782,-4.5694,-4.5661,-4.5687,-4.5683,-4.5764,-4.5774,-4.5801,-4.5921,-4.5925,-4.5833,-4.5838,-4.5841,-4.5843,0,0,0,0,0,0,0,-4.5462,-4.5479,-4.5645,-4.5606,-4.5608,-4.5603,-4.5614,-4.5694,-4.5728,-4.5664,-4.5662,-4.5676,-4.5764,-4.5794,-4.5803,-4.5927,-4.5833,-4.584,-4.5844,-4.5847,-4.6138,-4.6141,0,0,0,0,0,0,-4.5453,-4.5473,-4.5641,-4.5648,-4.553,-4.5609,-4.5622,-4.5663,-4.5727,-4.5734,-4.5678,-4.5674,-4.5783,-4.5795,-4.5807,-4.5933,-4.5841,-4.5848,-4.5852,-4.6134,-4.6138,-4.6142,0,0,0,0,0,0,-4.5449,-4.5469,-4.5637,-4.556,-4.5581,-4.5617,-4.5663,-4.5667,-4.5697,-4.5738,-4.5744,-4.5702,-4.5781,-4.5797,-4.5888,-4.5937,-4.5851,-4.5858,-4.613,-4.6136,-4.614,-4.6187,0,0,0,0,0,0,-4.5442,-4.5467,-4.5507,-4.5561,-4.5586,-4.5716,-4.5666,-4.5672,-4.5709,-4.5705,-4.5762,-4.5768,-4.578,-4.5878,-4.5896,-4.5945,-4.5863,-4.6126,-4.6133,-4.6139,-4.6181,-4.6193,-4.6203,0,0,0,0,0,-4.5434,-4.5516,-4.5509,-4.553,-4.5637,-4.5719,-4.5733,-4.5744,-4.5713,-4.5754,-4.578,-4.5767,-4.5929,-4.5887,-4.5907,-4.596,-4.6123,-4.6131,-4.6138,-4.6176,-4.619,-4.6202,0,0,0,0,0,0,-4.5466,-4.5523,-4.5516,-4.5618,-4.5664,-4.5715,-4.5766,-4.5759,-4.5815,-4.5809,-4.5821,-4.5834,-4.5926,-4.5953,-4.5905,-4.6065,-4.6022,-4.6034,-4.6044,-4.6057,-4.6068,-4.6059,-4.5869,0,0,0,0,0,-4.5485,-4.5548,-4.5594,-4.568,-4.5703,-4.5731,-4.5767,-4.5773,-4.582,-4.5839,-4.5873,-4.5919,-4.5981,-4.6021,-4.608,-4.6185,-4.6197,-4.6232,-4.6242,-4.6251,-4.6261,-4.6317,-4.6333,-4.6167,-4.6167,-4.6167,0,0,-4.5525,-4.5564,-4.5602,-4.5687,-4.5723,-4.5787,-4.5747,-4.5817,-4.5864,-4.585,-4.5938,-4.5964,-4.6017,-4.6116,-4.6161,-4.614,-4.6309,-4.6261,-4.6267,-4.6272,-4.6326,-4.6342,-4.6356,-4.6172,-4.6171,-4.617,0,0,-4.563,-4.5666,-4.5741,-4.5778,-4.5833,-4.5851,-4.5869,-4.5922,-4.5938,-4.6027,-4.6018,-4.6075,-4.6181,-4.6218,-4.6251,-4.6372,-4.636,-4.6391,-4.6447,-4.6502,-4.6515,-4.6526,-4.6567,-4.6582,-4.6401,-4.6401,-4.6401,0,-4.5672,-4.5768,-4.578,-4.585,-4.5887,-4.5878,-4.5953,-4.5989,-4.6061,-4.6086,-4.6063,-4.6195,-4.6231,-4.6337,-4.6367,-4.6395,-4.6415,-4.6383,-4.6512,-4.6524,-4.6535,-4.6574,-4.6589,-4.6404,-4.6403,-4.6403,-4.6403,0,-4.5816,-4.5883,-4.5937,-4.6006,-4.6049,-4.6122,-4.6145,-4.6188,-4.619,-4.621,-4.6301,-4.6343,-4.641,-4.6436,-4.6439,-4.6543,-4.6529,-4.6509,-4.6465,-4.6553,-4.659,-4.6606,-4.6408,-4.6407,-4.6406,-4.6405,0,0,-4.5942,-4.6018,-4.6037,-4.6068,-4.6129,-4.618,-4.6253,-4.6318,-4.6354,-4.6404,-4.6464,-4.6555,-4.6537,-4.6574,-4.6582,-4.663,-4.6721,-4.6604,-4.6605,-4.6622,-4.6837,-4.685,-4.6867,-4.6715,-4.6718,-4.672,-4.6832,0,-4.6051,-4.6178,-4.6191,-4.6305,-4.6366,-4.6359,-4.6422,-4.6466,-4.6487,-4.6542,-4.6567,-4.663,-4.6602,-4.6624,-4.6673,-4.6699,-4.6763,-4.6692,-4.677,-4.6772,-4.6754,-4.6887,-4.6901,-4.7004,-4.6846,-4.6849,-4.6851,0,-4.6194,-4.6248,-4.6367,-4.6419,-4.6445,-4.6501,-4.6562,-4.6616,-4.6665,-4.6678,-4.672,-4.6721,-4.6795,-4.6751,-4.6853,-4.6804,-4.6837,-4.6856,-4.686,-4.6866,-4.6815,-4.6894,-4.7037,-4.7051,-4.6874,-4.6872,-4.687,0,-4.6272,-4.6375,-4.6459,-4.6486,-4.6549,-4.6588,-4.6616,-4.6663,-4.6702,-4.6755,-4.678,-4.6842,-4.6876,-4.6923,-4.6941,-4.6907,-4.7042,-4.6999,-4.7053,-4.7052,-4.7079,-4.7077,-4.7228,-4.7105,-4.7105,-4.7104,-4.7104,0,-4.639,-4.6463,-4.6494,-4.6546,-4.6627,-4.6643,-4.6723,-4.6749,-4.6791,-4.6847,-4.6846,-4.6899,-4.692,-4.6976,-4.6991,-4.7072,-4.7088,-4.71,-4.7102,-4.7098,-4.7097,-4.7118,-4.7111,-4.7108,-4.7108,-4.7107,-4.7106,0,-4.649,-4.6514,-4.6605,-4.6657,-4.6672,-4.6729,-4.6774,-4.6824,-4.6845,-4.6917,-4.6935,-4.6968,-4.7035,-4.7058,-4.7139,-4.7148,-4.7242,-4.724,-4.7225,-4.7225,-4.7277,-4.7271,-4.7444,-4.7467,-4.7332,-4.7333,-4.7334,0,-4.6562,-4.6618,-4.6676,-4.6714,-4.6743,-4.6804,-4.6843,-4.6861,-4.6902,-4.6963,-4.7005,-4.7071,-4.7125,-4.7231,-4.7263,-4.7325,-4.7322,-4.7379,-4.7331,-4.7326,-4.7321,-4.7316,-4.7321,-4.7387,-4.7388,-4.739,-4.7391,0,-4.6689,-4.6698,-4.6754,-4.6815,-4.6862,-4.6911,-4.6958,-4.6989,-4.7014,-4.706,-4.7128,-4.7169,-4.7251,-4.7317,-4.738,-4.7408,-4.7403,-4.7406,-4.7421,-4.7416,-4.7405,-4.741,-4.7247,-4.7401,-4.74,-4.7399,-4.7399,-4.7398,-4.6776,-4.6824,-4.6873,-4.6936,-4.6973,-4.7017,-4.7066,-4.7094,-4.7151,-4.7219,-4.7226,-4.7299,-4.7347,-4.7432,-4.7464,-4.7521,-4.7505,-4.7527,-4.7533,-4.7537,-4.754,-4.7398,-4.7533,-4.7532,-4.7532,-4.7532,-4.7532,0,-4.69,-4.6931,-4.6989,-4.7054,-4.7104,-4.7096,-4.7148,-4.7189,-4.7253,-4.7299,-4.7352,-4.7429,-4.7493,-4.753,-4.7593,-4.7632,-4.7631,-4.7647,-4.7643,-4.765,-4.7552,-4.7531,-4.7647,-4.7647,-4.7647,-4.7647,-4.7647,-4.7647,-4.697,-4.7052,-4.7067,-4.7167,-4.7198,-4.7268,-4.7298,-4.7339,-4.7375,-4.7462,-4.7515,-4.7538,-4.7581,-4.7647,-4.7705,-4.7714,-4.7736,-4.7754,-4.7762,-4.7669,-4.7657,-4.7646,-4.7626,-4.776,-4.776,-4.7855,-4.7856,-4.7856]},{"header":{"parameterUnit":"m.s-1","parameterCategory":1,"la1":30.2991,"la2":30.254,"lo1":-89.0895,"lo2":-89.0444,"dy":0.0017,"dx":0.0017,"nx":28,"ny":28,"refTime":"2024-04-01T21:00:00:Z","depth":0,"parameterNumber":3,"parameterNumberName":"V-component_of_WINDS"},"data":[0,0,0,0,0,0,0,0,0,0,0,0,0,0,0,0,0,0,0,0,0,0,0,0,0,0,0,0,0,0,0,0,0,0,0,0,0,0,0,0,0,0,0,0,0,0,0,0,0,0,0,0,0,0,0,0,0,0,5.0457,5.0458,0,5.0541,5.0542,5.0543,5.0527,5.0526,5.0524,5.0523,5.0605,5.0608,5.0612,0,0,0,0,0,0,0,0,0,0,0,0,0,5.0282,5.0285,5.0457,5.0458,5.0459,5.0541,5.0542,5.0543,5.0527,5.0525,5.0524,5.0522,5.0603,5.0608,5.0612,0,0,0,0,0,0,0,0,0,0,0,0,0,5.0361,5.0286,5.0457,5.0461,5.0463,5.0541,5.0542,5.0543,5.0528,5.0525,5.0523,5.0521,5.0602,5.0607,5.0613,5.069,0,0,5.0629,5.0631,0,0,0,0,0,0,0,0,5.0356,5.0367,5.046,5.0461,5.0463,5.0521,5.051,5.0593,5.0528,5.0503,5.0523,5.052,5.0579,5.0586,5.0606,5.0694,5.0698,5.0629,5.0633,5.0635,5.0636,0,0,0,0,0,0,0,5.0351,5.0364,5.049,5.0461,5.0463,5.0458,5.0467,5.0526,5.0552,5.0505,5.0504,5.0514,5.0579,5.0601,5.0608,5.0699,5.0629,5.0634,5.0637,5.0639,5.0857,5.086,0,0,0,0,0,0,5.0344,5.0359,5.0488,5.0493,5.0403,5.0463,5.0473,5.0505,5.0551,5.0556,5.0516,5.0513,5.0593,5.0602,5.0611,5.0707,5.0635,5.064,5.0643,5.0855,5.0858,5.086,0,0,0,0,0,0,5.0341,5.0356,5.0484,5.0426,5.0442,5.0469,5.0504,5.0508,5.053,5.056,5.0564,5.0534,5.0592,5.0603,5.0671,5.0709,5.0642,5.0647,5.0852,5.0855,5.0859,5.0898,0,0,0,0,0,0,5.0336,5.0355,5.0385,5.0427,5.0445,5.0545,5.0507,5.0511,5.054,5.0537,5.0578,5.0583,5.0591,5.0664,5.0677,5.0715,5.0651,5.0848,5.0853,5.0858,5.0894,5.0903,5.0911,0,0,0,0,0,5.0329,5.0392,5.0387,5.0402,5.0484,5.0547,5.0557,5.0566,5.0543,5.0573,5.0593,5.0581,5.0703,5.0671,5.0685,5.0726,5.0846,5.0852,5.0857,5.089,5.0901,5.0911,0,0,0,0,0,0,5.0352,5.0397,5.0392,5.047,5.0505,5.0544,5.0583,5.0577,5.0619,5.0614,5.0622,5.0632,5.0702,5.072,5.0684,5.0805,5.0771,5.078,5.0791,5.0802,5.081,5.0804,5.0656,0,0,0,0,0,5.0366,5.0415,5.0451,5.0516,5.0534,5.0555,5.0583,5.0587,5.0623,5.0638,5.0662,5.0697,5.0743,5.0773,5.0817,5.0896,5.0905,5.0931,5.094,5.0947,5.0955,5.1,5.1012,5.0879,5.0879,5.0879,0,0,5.0396,5.0426,5.0456,5.0521,5.0549,5.0599,5.0568,5.0621,5.0658,5.0645,5.0712,5.0731,5.077,5.0845,5.0879,5.0863,5.0994,5.0954,5.0959,5.0964,5.1007,5.102,5.1031,5.0883,5.0883,5.0882,0,0,5.0475,5.0503,5.0561,5.059,5.0633,5.0647,5.0661,5.0702,5.0715,5.0782,5.0774,5.0817,5.0896,5.0925,5.095,5.1042,5.1034,5.1056,5.1101,5.1145,5.1156,5.1165,5.12,5.1212,5.1064,5.1064,5.1064,0,5.0506,5.0582,5.0591,5.0647,5.0676,5.0668,5.0727,5.0754,5.0809,5.0829,5.081,5.091,5.0936,5.1018,5.1041,5.1061,5.1077,5.1052,5.1154,5.1163,5.1172,5.1205,5.1218,5.1066,5.1066,5.1066,5.1066,0,5.0619,5.0671,5.0713,5.0768,5.0802,5.0858,5.0876,5.0909,5.091,5.0926,5.0996,5.1026,5.1077,5.1097,5.1098,5.118,5.1169,5.1152,5.1118,5.1187,5.1218,5.1231,5.107,5.1069,5.1068,5.1068,0,0,5.0715,5.0776,5.0791,5.0817,5.0865,5.0905,5.0961,5.1013,5.1041,5.1079,5.1127,5.1195,5.118,5.1208,5.1212,5.1251,5.1324,5.1229,5.123,5.1247,5.1418,5.1432,5.1446,5.1318,5.1321,5.1322,5.1415,0,5.0801,5.0902,5.0913,5.1003,5.1053,5.1046,5.1096,5.113,5.1146,5.119,5.1207,5.1256,5.1232,5.125,5.1287,5.1307,5.1359,5.13,5.1363,5.1365,5.1355,5.1462,5.1477,5.1563,5.1427,5.1429,5.1431,0,5.0914,5.0958,5.1054,5.1096,5.1117,5.1161,5.121,5.1252,5.129,5.13,5.1333,5.1332,5.139,5.1353,5.1434,5.1394,5.142,5.1434,5.1437,5.1445,5.1403,5.1474,5.1591,5.1604,5.145,5.1448,5.1447,0,5.0977,5.1059,5.1128,5.115,5.12,5.1232,5.1254,5.1291,5.1322,5.1364,5.1384,5.1431,5.1458,5.1494,5.1507,5.1479,5.1587,5.1551,5.1597,5.1597,5.1621,5.162,5.1745,5.1635,5.1635,5.1635,5.1635,0,5.1073,5.1132,5.1158,5.12,5.1267,5.1278,5.1343,5.1363,5.1396,5.1442,5.1438,5.1481,5.1494,5.1539,5.1549,5.1615,5.1626,5.1636,5.1638,5.1637,5.1636,5.1655,5.165,5.1638,5.1638,5.1637,5.1636,0,5.1155,5.1174,5.1249,5.1292,5.1304,5.1351,5.1387,5.1427,5.1443,5.1502,5.1516,5.1541,5.1594,5.161,5.1673,5.168,5.1758,5.1753,5.1745,5.1746,5.1792,5.1788,5.1935,5.1956,5.1831,5.1832,5.1833,0,5.1216,5.1262,5.131,5.1341,5.1365,5.1415,5.1447,5.146,5.1493,5.1542,5.1577,5.163,5.1673,5.1758,5.1781,5.183,5.1828,5.1876,5.1835,5.1833,5.1831,5.1829,5.1834,5.1884,5.1885,5.1886,5.1887,0,5.1322,5.133,5.1377,5.1428,5.1467,5.1507,5.1546,5.1571,5.1589,5.1627,5.1682,5.1716,5.1781,5.1834,5.1884,5.1906,5.19,5.19,5.1914,5.1914,5.1909,5.1914,5.1768,5.1897,5.1896,5.1895,5.1895,5.1894,5.1397,5.1438,5.1479,5.1532,5.1563,5.1599,5.164,5.1662,5.1709,5.1765,5.1769,5.1829,5.1867,5.1934,5.1958,5.2005,5.1991,5.201,5.2015,5.202,5.2025,5.19,5.2014,5.2014,5.2013,5.2013,5.2013,0,5.1505,5.1531,5.1579,5.1635,5.1677,5.1668,5.1711,5.1746,5.18,5.1837,5.188,5.1944,5.1995,5.2023,5.2074,5.2107,5.2105,5.212,5.2118,5.2124,5.2034,5.2018,5.212,5.212,5.212,5.212,5.212,5.212,5.1566,5.1636,5.1649,5.1734,5.1759,5.182,5.1845,5.1879,5.1909,5.1981,5.2025,5.2043,5.2076,5.213,5.2177,5.2184,5.2203,5.222,5.2225,5.2141,5.213,5.212,5.2105,5.2223,5.2224,5.2311,5.2312,5.2313]}]]